User: anonymous   Login
Location: Ottawa
(45.4170°N, 75.7000°W)
Time: 16:20:09
(UTC-04:00)
Language:

Aureole 3 Rocket - Orbit

View from above orbital plane
View from above orbital plane
View from above satellite
View from above satellite

Ground track
Ground track

The orbit data is extracted from the following two-line orbital elements,

1 12849U 81094B   16146.94058819 +.00000933 +00000-0 +84458-4 0  9996
2 12849 082.4918 103.8515 0905144 016.1024 346.6964 13.49819874689698
Epoch (UTC): 25 May 2016 22:34:26
Eccentricity: 0.0905144
inclination: 82.4918°
perigee height: 398 km
apogee height: 1747 km
right ascension of ascending node: 103.8515°
argument of perigee: 16.1024°
revolutions per day: 13.49819874
mean anomaly at epoch: 346.6964°
orbit number at epoch: 68969

The dashed part of the orbit path shows where the satellite is in the earth's shadow,  

DLR